EW1549 Weather Reports


time (UTC)temp
F
wind
direction
speed
knots
gust
knots
rain 1hr
in
rain 24hr
in
rain mn
in
humidity
%
barometer
mb
20260903080012 0 185 0.0 0.0 0.00 0.00 0.00 1017.6
20260903074507 0 185 0.0 0.0 0.00 0.00 0.00 1017.6
20260903073005 0 185 0.0 0.0 0.00 0.00 0.00 1017.6
20260903071620 0 185 0.0 2.6 0.00 0.00 0.00 1017.4
20260903070055 0 183 0.0 4.3 0.00 0.00 0.00 1017.5
20260903064550 0 196 2.6 5.2 0.00 0.00 0.00 1017.6
20260903063049 0 195 3.5 5.2 0.00 0.00 0.00 1017.6
20260903061542 0 183 0.0 0.0 0.00 0.00 0.00 1017.6
20260903060108 0 107 0.0 0.0 0.00 0.00 0.00 1017.7
20260903054535 0 107 0.0 0.9 0.00 0.00 0.00 1017.4
20260903053029 0 94 0.0 0.0 0.00 0.00 0.00 1017.4
20260903051524 0 94 0.9 3.5 0.00 0.00 0.00 1017.5
20260903050020 0 200 0.0 1.7 0.00 0.00 0.00 1017.6
20260903044515 0 200 0.9 6.1 0.00 0.00 0.00 1017.5
20260903043022 0 232 2.6 6.1 0.00 0.00 0.00 1017.6
20260903041507 0 212 5.2 11.3 0.00 0.00 0.00 1017.3
20260903040003 0 191 8.7 12.2 0.00 0.00 0.00 1017.1
20260903034558 0 222 7.0 10.4 0.00 0.00 0.00 1017.4
20260903033051 0 225 2.6 5.2 0.00 0.00 0.00 1017.1
20260903031547 0 252 3.5 6.1 0.00 0.00 0.00 1017.1
20260903030043 0 215 4.3 7.8 0.00 0.00 0.00 1017.1
20260903024529 0 210 6.1 8.7 0.00 0.00 0.00 1017.1
20260903023042 0 219 4.3 5.2 0.00 0.00 0.00 1017.1
20260903021521 0 231 0.0 0.0 0.00 0.00 0.00 1016.9
20260903020015 0 231 0.0 0.0 0.00 0.00 0.00 1017.0
20260903014510 0 231 0.0 5.2 0.00 0.00 0.00 1017.1
20260903013006 0 232 2.6 5.2 0.00 0.00 0.00 1017.3
20260903011501 0 238 2.6 4.3 0.00 0.00 0.00 1017.3
20260903010057 0 237 1.7 5.2 0.00 0.00 0.00 1017.5
20260903004554 0 223 3.5 7.0 0.00 0.00 0.00 1017.6
20260903003048 0 235 2.6 4.3 0.00 0.00 0.00 1017.8
20260903001549 0 236 3.5 6.1 0.00 0.00 0.00 1017.6
20260903000040 0 246 3.5 5.2 0.00 0.00 0.00 1017.5
20260902234550 0 241 2.6 4.3 0.00 0.00 0.00 1017.4
20260902233032 0 241 0.0 0.0 0.00 0.00 0.00 1017.4
20260902231612 0 241 0.0 3.5 0.00 0.00 0.00 1017.4
20260902230108 0 241 1.7 4.3 0.00 0.00 0.00 1017.4
20260902224554 0 266 0.9 4.3 0.00 0.00 0.00 1017.3
20260902223054 0 36 0.0 0.0 0.00 0.00 0.00 1017.2
20260902221553 0 53 0.0 5.2 0.00 0.00 0.00 1017.4
20260902220101 0 65 2.6 7.8 0.00 0.00 0.00 1017.3
20260902214552 0 67 0.0 3.5 0.00 0.00 0.00 1017.4
20260902213052 0 251 0.0 0.0 0.00 0.00 0.00 1017.4
20260902211554 0 269 0.0 0.0 0.00 0.00 0.00 1017.5
20260902210055 0 275 1.7 4.3 0.00 0.00 0.00 1017.4
20260902204553 0 219 0.0 3.5 0.00 0.00 0.00 1017.2
20260902203046 0 41 2.6 7.8 0.00 0.00 0.00 1017.1
20260902201542 0 36 0.0 10.4 0.00 0.00 0.00 1016.8
20260902200036 0 51 7.0 10.4 0.00 0.00 0.00 1016.6
20260902194533 0 41 5.2 10.4 0.00 0.00 0.00 1016.6
20260902193028 0 69 3.5 11.3 0.00 0.00 0.00 1016.6
20260902191522 0 14 4.3 13.0 0.00 0.00 0.00 1016.8
20260902190019 0 50 7.8 13.0 0.00 0.00 0.00 1016.7
20260902184514 0 36 5.2 13.9 0.00 0.00 0.00 1016.6
20260902183010 0 55 7.0 11.3 0.00 0.00 0.00 1016.7
20260902181505 0 56 3.5 10.4 0.00 0.00 0.00 1016.6
20260902180000 0 58 7.8 12.2 0.00 0.00 0.00 1016.8
20260902174604 0 56 9.6 16.5 0.00 0.00 0.00 1016.9
20260902173053 0 36 8.7 16.5 0.00 0.00 0.00 1017.1
20260902171558 0 57 12.2 17.4 0.00 0.00 0.00 1017.2
20260902170043 0 36 7.8 18.2 0.00 0.00 0.00 1017.3
20260902164539 0 36 13.9 19.1 0.00 0.00 0.00 1017.3
20260902163035 0 41 10.4 20.0 0.00 0.00 0.00 1017.3
20260902161540 0 50 13.0 22.6 0.00 0.00 0.00 1017.1
20260902160028 0 36 9.6 20.0 0.00 0.00 0.00 1017.0
20260902154530 0 62 9.6 20.0 0.00 0.00 0.00 1016.9
20260902153018 0 25 12.2 19.1 0.00 0.00 0.00 1016.9
20260902151514 0 36 7.0 20.9 0.00 0.00 0.00 1017.3
20260902150009 0 87 11.3 22.6 0.00 0.00 0.00 1017.3
20260902144511 0 89 10.4 19.1 0.00 0.00 0.00 1017.6
20260902143008 0 60 11.3 19.1 0.00 0.00 0.00 1017.4
20260902141516 0 30 7.8 18.2 0.00 0.00 0.00 1017.5
20260902140007 0 92 9.6 16.5 0.00 0.00 0.00 1017.5
20260902134506 0 26 5.2 16.5 0.00 0.00 0.00 1017.5
20260902133042 0 68 7.0 19.1 0.00 0.00 0.00 1017.6
20260902131541 0 73 10.4 18.2 0.00 0.00 0.00 1017.6
20260902130042 0 41 7.0 14.8 0.00 0.00 0.00 1017.8
20260902124540 0 29 8.7 20.0 0.00 0.00 0.00 1018.1
20260902123043 0 52 10.4 18.2 0.00 0.00 0.00 1018.1
20260902121538 0 41 11.3 20.0 0.00 0.00 0.00 1018.3
20260902120035 0 28 10.4 17.4 0.00 0.00 0.00 1018.5
20260902114602 0 355 13.0 20.0 0.00 0.00 0.00 1018.5
20260902113027 0 46 6.1 16.5 0.00 0.00 0.00 1018.7
20260902111522 0 29 7.8 15.6 0.00 0.00 0.00 1018.7
20260902110025 0 20 8.7 15.6 0.00 0.00 0.00 1018.7
20260902104522 0 1 8.7 16.5 0.00 0.00 0.00 1018.7
20260902103017 0 23 7.8 15.6 0.00 0.00 0.00 1018.5
20260902101506 0 41 2.6 13.0 0.00 0.00 0.00 1018.6
20260902100012 0 8 0.0 5.2 0.00 0.00 0.00 1018.6
20260902094505 0 3 6.1 12.2 0.00 0.00 0.00 1018.6
20260902093001 0 339 5.2 9.6 0.00 0.00 0.00 1018.6
20260902091558 0 356 2.6 11.3 0.00 0.00 0.00 1018.5
20260902090059 0 28 0.0 7.0 0.00 0.00 0.00 1018.5
20260902084547 0 238 3.5 7.0 0.00 0.00 0.00 1018.2
20260902083045 0 243 1.7 6.1 0.00 0.00 0.00 1018.1
20260902081541 0 212 0.9 7.0 0.00 0.00 0.00 1017.8